Binghamton, NY

3:13 AM EST on November 21, 2019 (GMT -0500)
Binghamton Regional-Link

Weather History for KBGM - October, 2019

Change the Weather History Date:

Friday, October 18, 2019

  Actual Average Record
Temperature  
Mean Temperature 40 °F 48 °F  
Max Temperature 45 °F 56 °F 77 °F (2016)
Min Temperature 34 °F 39 °F 22 °F (1974)
Degree Days  
Heating Degree Days 25 17  
Month to date heating degree days 262 261  
Since 1 July heating degree days 435 518  
Cooling Degree Days 0 0  
Month to date cooling degree days 5 0  
Year to date cooling degree days 389 379  
Moisture  
Dew Point 36 °F    
Average Humidity 79    
Maximum Humidity 93    
Minimum Humidity 65    
Precipitation  
Precipitation T in 0.11 in 1.48 in (1967)
Month to date precipitation 4.26 1.98  
Year to date precipitation 34.92 31.82  
Snow  
Snow 0.00 in 0.00 in 0.70 in (1972)
Month to date snowfall 0.0 0.2  
Since 1 July snowfall 0.0 0.2  
Since 1 September snowfall 0.0 0.2  
Snow Depth 0.00 in    
Sea Level Pressure  
Sea Level Pressure 29.90 in    
Wind  
Wind Speed 10 mph (NW)    
Max Wind Speed 20 mph    
Max Gust Speed 28 mph    
Visibility 10 miles    
Events Rain    
T = Trace of Precipitation, MM = Missing Value Source: NWS Daily Summary

Daily Weather History Graph

Daily Weather History Graph

Search for Another Location

Airport or City:

Astronomy

Oct. 18, 2019 Rise Set
Actual Time 7:19 AM EDT 6:17 PM EDT
Civil Twilight 6:51 AM EDT 6:46 PM EDT
Nautical Twilight 6:18 AM EDT 7:18 PM EDT
Astronomical Twilight 5:46 AM EDT 7:50 PM EDT
Moon 9:28 PM EDT (10/18) 11:54 AM EDT (10/18)
Length of Visible Light 11h 54m
Length of Day
10h 57m
Waning Gibbous, 79% of the Moon is Illuminated
Oct 18
Waning Gibbous
Oct 21
Last Quarter
Oct 27
New
Nov 4
First Quarter
Nov 12
Full

Hourly Weather History & Observations

Time (EDT) Temp. Windchill Dew Point Humidity Pressure Visibility Wind Dir Wind Speed Gust Speed Precip Events Conditions
12:40 AM 41.0 °F 33.9 °F 39.0 °F 93% 29.68 in 10.0 mi NW 12.7 mph 24.2 mph N/A   Overcast
12:53 AM 41.0 °F 35.2 °F 39.0 °F 93% 29.72 in 10.0 mi NW 9.2 mph 21.9 mph N/A   Overcast
1:01 AM 41.0 °F 34.7 °F 39.0 °F 93% 29.69 in 9.0 mi WNW 10.4 mph - N/A   Overcast
1:53 AM 39.9 °F 32.9 °F 37.9 °F 93% 29.74 in 8.0 mi WNW 11.5 mph 24.2 mph 0.00 in   Overcast
2:53 AM 39.9 °F 32.5 °F 37.9 °F 93% 29.75 in 10.0 mi NW 12.7 mph 25.3 mph N/A   Overcast
3:53 AM 39.9 °F 32.1 °F 37.9 °F 93% 29.76 in 10.0 mi NW 13.8 mph 27.6 mph N/A   Overcast
4:53 AM 39.9 °F 32.5 °F 37.0 °F 89% 29.78 in 10.0 mi NW 12.7 mph 20.7 mph N/A   Overcast
5:53 AM 39.9 °F 33.4 °F 37.9 °F 93% 29.81 in 10.0 mi NW 10.4 mph 18.4 mph N/A   Overcast
6:05 AM 39.9 °F 32.5 °F 37.0 °F 89% 29.78 in 10.0 mi NW 12.7 mph 23.0 mph N/A   Overcast
6:36 AM 39.9 °F 30.5 °F 37.0 °F 89% 29.79 in 10.0 mi NW 19.6 mph 27.6 mph N/A   Overcast
6:53 AM 39.9 °F 32.1 °F 37.0 °F 89% 29.83 in 10.0 mi NW 13.8 mph 19.6 mph N/A   Overcast
7:53 AM 39.9 °F 32.9 °F 37.0 °F 89% 29.87 in 10.0 mi NW 11.5 mph 20.7 mph 0.00 in   Overcast
8:05 AM 39.9 °F 34.5 °F 37.0 °F 89% 29.85 in 10.0 mi NW 8.1 mph 18.4 mph N/A   Overcast
8:20 AM 39.0 °F 32.3 °F 37.0 °F 93% 29.86 in 10.0 mi NW 10.4 mph 21.9 mph N/A   Overcast
8:32 AM 39.0 °F 33.4 °F 37.0 °F 93% 29.86 in 6.0 mi WNW 8.1 mph 18.4 mph N/A   Overcast
8:53 AM 39.0 °F 31.8 °F 37.0 °F 93% 29.90 in 8.0 mi WNW 11.5 mph 17.3 mph N/A   Overcast
9:53 AM 39.9 °F 33.4 °F 37.0 °F 89% 29.91 in 6.0 mi NW 10.4 mph 19.6 mph 0.00 in Rain Light Rain
10:16 AM 39.0 °F 31.8 °F 37.0 °F 93% 29.88 in 5.0 mi NW 11.5 mph 20.7 mph 0.00 in Rain Light Rain
10:26 AM 39.0 °F 32.3 °F 37.0 °F 93% 29.89 in 4.0 mi WNW 10.4 mph 18.4 mph 0.00 in Rain Light Rain
10:53 AM 39.9 °F 32.5 °F 37.0 °F 89% 29.92 in 10.0 mi WNW 12.7 mph 20.7 mph 0.00 in   Overcast
11:24 AM 39.9 °F 31.4 °F 36.0 °F 86% 29.89 in 10.0 mi NW 16.1 mph 24.2 mph N/A   Overcast
11:32 AM 39.9 °F 31.1 °F 36.0 °F 86% 29.89 in 10.0 mi NW 17.3 mph 27.6 mph N/A   Overcast
11:53 AM 39.9 °F 32.5 °F 36.0 °F 86% 29.94 in 10.0 mi NW 12.7 mph 25.3 mph N/A   Overcast
12:49 PM 41.0 °F 32.8 °F 35.6 °F 81% 29.91 in 10.0 mi NW 16.1 mph 24.2 mph N/A   Overcast
12:53 PM 41.0 °F 33.1 °F 35.1 °F 79% 29.94 in 10.0 mi NW 15.0 mph 24.2 mph N/A   Overcast
1:53 PM 42.1 °F 34.9 °F 35.1 °F 76% 29.96 in 10.0 mi NW 13.8 mph 19.6 mph N/A   Overcast
2:53 PM 43.0 °F 36.0 °F 35.1 °F 74% 29.97 in 10.0 mi NW 13.8 mph 20.7 mph N/A   Overcast
3:04 PM 44.1 °F 38.6 °F 35.1 °F 71% 29.94 in 10.0 mi NW 10.4 mph - N/A   Overcast
3:11 PM 44.1 °F 38.6 °F 35.1 °F 71% 29.94 in 10.0 mi NNW 10.4 mph - N/A   Overcast
3:23 PM 44.1 °F 37.1 °F 34.0 °F 68% 29.94 in 10.0 mi NW 15.0 mph 24.2 mph N/A   Overcast
3:53 PM 44.1 °F 37.7 °F 34.0 °F 68% 29.97 in 10.0 mi NNW 12.7 mph - N/A   Overcast
4:20 PM 45.0 °F 38.9 °F 34.0 °F 65% 29.95 in 10.0 mi NNW 12.7 mph 21.9 mph N/A   Overcast
4:32 PM 44.1 °F 38.1 °F 34.0 °F 68% 29.95 in 10.0 mi NNW 11.5 mph - N/A   Overcast
4:53 PM 43.0 °F 36.0 °F 34.0 °F 71% 29.98 in 10.0 mi NNW 13.8 mph 19.6 mph N/A   Mostly Cloudy
5:53 PM 43.0 °F 36.0 °F 33.1 °F 68% 30.00 in 10.0 mi NW 13.8 mph 20.7 mph N/A   Scattered Clouds
6:53 PM 41.0 °F 37.1 °F 34.0 °F 76% 30.01 in 10.0 mi NNW 5.8 mph - N/A   Clear
7:53 PM 39.9 °F 34.5 °F 33.1 °F 77% 30.02 in 10.0 mi NNW 8.1 mph - N/A   Clear
8:53 PM 39.0 °F 34.0 °F 33.1 °F 79% 30.04 in 10.0 mi NNW 6.9 mph - N/A   Clear
9:53 PM 37.0 °F 33.3 °F 33.1 °F 86% 30.05 in 10.0 mi North 4.6 mph - N/A   Clear
10:53 PM 37.0 °F - 33.1 °F 86% 30.06 in 10.0 mi Calm Calm - N/A   Clear
11:53 PM 35.1 °F 31.0 °F 33.1 °F 92% 30.07 in 10.0 mi WSW 4.6 mph - N/A   Clear